Weather History for Riverside, CA

Change the Weather History Date:

Saturday, March 1, 2014

  Actual Average Record
Temperature  
Mean Temperature 57 °F 57 °F  
Max Temperature 61 °F 69 °F 91 °F (1910)
Min Temperature 52 °F 45 °F 28 °F (1926)
Degree Days  
Heating Degree Days 8 8  
Month to date heating degree days 8 8  
Since 1 July heating degree days 670 1116  
Cooling Degree Days 0 0  
Month to date cooling degree days 0 0  
Year to date cooling degree days 29 9  
Growing Degree Days 6 (Base 50)    
Moisture  
Dew Point 50 °F    
Average Humidity 80    
Maximum Humidity 96    
Minimum Humidity 64    
Precipitation  
Precipitation 0.23 in 0.14 in 1.81 in (1978)
Month to date precipitation 0.23 0.14  
Year to date precipitation 1.33 6.12  
Since 1 July precipitation 2.48 9.33  
Snow  
Snow 0.00 in - - ()
Month to date snowfall 0.0  
Year to date snowfall 0.0  
Since 1 July snowfall 0.0  
Snow Depth 0.00 in    
Sea Level Pressure  
Sea Level Pressure 29.83 in    
Wind  
Wind Speed 2 mph (ESE)    
Max Wind Speed 14 mph    
Max Gust Speed 17 mph    
Visibility 9 miles    
Events Rain , Thunderstorm    
T = Trace of Precipitation, MM = Missing Value Source: NWS Daily Summary

Daily Weather History Graph

Daily Weather History Graph

Search for Another Location

Airport:

Trip Planner

Search our weather history database for the weather conditions in past years. The results will help you decide how hot, cold, wet, or windy it might be!

Date:

Astronomy

Mar. 01, 2014 Rise Set
Actual Time 6:18 AM PST 5:46 PM PST
Civil Twilight 5:53 AM PST 6:11 PM PST
Nautical Twilight 5:24 AM PST 6:40 PM PST
Astronomical Twilight 4:55 AM PST 7:09 PM PST
Moon 6:17 AM PST (3/1) 6:34 PM PST (3/1)
Length of Visible Light 12h 18m
Length of Day
11h 28m
New Moon, 0% of the Moon is Illuminated
Mar 1
New Moon
Mar 8
First Quarter
Mar 16
Full
Mar 23
Last Quarter
Mar 30
New

Hourly Weather History & Observations

Time (PST) Temp. Dew Point Humidity Pressure Visibility Wind Dir Wind Speed Gust Speed Precip Events Conditions
12:53 AM 53.1 °F 50.0 °F 89% 29.76 in 10.0 mi Calm Calm - N/A   Overcast
1:13 AM 53.1 °F 50.0 °F 89% 29.79 in 10.0 mi SE 4.6 mph - 0.00 in Rain Light Rain
1:53 AM 53.1 °F 50.0 °F 89% 29.75 in 10.0 mi Calm Calm - 0.00 in   Overcast
2:51 AM 51.8 °F 50.0 °F 94% 29.78 in - SE 5.8 mph - 0.02 in Rain , Thunderstorm Light Thunderstorms and Rain
2:53 AM 52.0 °F 50.0 °F 93% 29.75 in 8.0 mi ESE 5.8 mph - 0.02 in Rain , Thunderstorm Light Rain
3:03 AM 52.0 °F 50.0 °F 93% 29.78 in 10.0 mi ESE 5.8 mph - 0.00 in Rain , Thunderstorm Light Thunderstorms and Rain
3:20 AM 52.0 °F 50.0 °F 93% 29.79 in 3.0 mi South 3.5 mph - 0.05 in Rain , Thunderstorm Heavy Rain
3:27 AM 52.0 °F 50.0 °F 93% 29.79 in 4.0 mi South 3.5 mph - 0.06 in Rain Rain
3:53 AM 52.0 °F 50.0 °F 93% 29.77 in 4.0 mi ESE 5.8 mph - 0.10 in Rain Rain
4:53 AM 52.0 °F 50.0 °F 93% 29.77 in 10.0 mi NE 3.5 mph - 0.00 in Rain Light Rain
5:53 AM 52.0 °F 48.9 °F 89% 29.79 in 10.0 mi NE 4.6 mph - 0.00 in   Overcast
6:53 AM 52.0 °F 50.0 °F 93% 29.80 in 7.0 mi NE 3.5 mph - 0.00 in   Overcast
7:53 AM 55.0 °F 48.9 °F 80% 29.81 in 10.0 mi SSE 4.6 mph - N/A   Mostly Cloudy
8:53 AM 55.0 °F 50.0 °F 83% 29.83 in 7.0 mi SSE 6.9 mph - N/A Rain Rain
9:53 AM 57.0 °F 51.1 °F 81% 29.84 in 10.0 mi SE 6.9 mph - N/A   Overcast
10:53 AM 59.0 °F 48.9 °F 69% 29.83 in 10.0 mi East 5.8 mph - N/A   Overcast
11:53 AM 60.1 °F 48.0 °F 64% 29.82 in 10.0 mi Calm Calm - N/A   Overcast
12:53 PM 55.0 °F 51.1 °F 86% 29.83 in 3.0 mi ESE 4.6 mph - 0.10 in Rain Rain
1:53 PM 57.9 °F 50.0 °F 75% 29.82 in 10.0 mi SE 5.8 mph - 0.00 in Rain Light Rain
2:53 PM 59.0 °F 51.1 °F 75% 29.81 in 10.0 mi ENE 5.8 mph - 0.00 in   Mostly Cloudy
3:53 PM 59.0 °F 51.1 °F 75% 29.81 in 10.0 mi Calm Calm - 0.01 in   Overcast
4:53 PM 57.9 °F 48.0 °F 70% 29.82 in 10.0 mi SSE 3.5 mph - N/A   Overcast
5:53 PM 57.0 °F 48.0 °F 72% 29.83 in 10.0 mi SE 4.6 mph - N/A   Overcast
6:34 PM 52.0 °F 48.9 °F 89% 29.90 in 9.0 mi WNW 9.2 mph - 0.00 in Rain Light Rain
6:53 PM 52.0 °F 50.0 °F 93% 29.88 in 5.0 mi Variable 6.9 mph - 0.02 in Rain Rain
7:53 PM 52.0 °F 48.9 °F 89% 29.91 in 10.0 mi East 5.8 mph - 0.00 in   Mostly Cloudy
8:53 PM 52.0 °F 50.0 °F 93% 29.92 in 10.0 mi East 3.5 mph - N/A   Overcast
9:53 PM 52.0 °F 48.9 °F 89% 29.93 in 10.0 mi NE 4.6 mph - N/A   Overcast
10:53 PM 52.0 °F 48.9 °F 89% 29.93 in 10.0 mi ENE 3.5 mph - N/A   Overcast
11:29 PM 52.0 °F 48.9 °F 89% 29.97 in 10.0 mi ENE 3.5 mph - N/A   Overcast
11:53 PM 52.0 °F 48.9 °F 89% 29.94 in 10.0 mi Calm Calm - N/A   Overcast